{"data":{"norad_id":49766,"intl_designator":"2021-115AU","name":"STARLINK-3190","alt_names":[],"object_type":"PAYLOAD","status":"ACTIVE","operator":null,"country":"US","launch_date":"2021-12-02","launch_site_code":"AFETR","launch_vehicle":null,"mission":null,"orbit_class":"UNKNOWN","rcs_meters":null,"size_class":null,"mass_kg":null,"dimensions":null,"purposes":["comms"],"wikipedia_slug":null,"has_3d_model":false,"image_url":null,"decayed_at":null,"tle_current":{"epoch":"2026-05-24T10:24:19.801728Z","epoch_age_seconds":118011,"freshness":"FRESH","line1":"1 49766U 21115AU  26144.43356252  .00000671  00000+0  60255-4 0  9994","line2":"2 49766  53.2146 159.1017 0000996  69.1172 290.9927 15.08841853247115","mean_motion":15.08841853,"eccentricity":9.96e-5,"inclination_deg":53.2146,"raan_deg":159.1017,"arg_perigee_deg":69.1172,"mean_anomaly_deg":290.9927,"bstar":6.0255e-5,"rev_number":24711,"period_min":95.437437471454,"perigee_km":539.04870476759,"apogee_km":540.42674541282,"semimajor_km":6917.8747250902,"source":"CELESTRAK","updated_at":"2026-05-25T13:38:16.840557Z"}}}